Location: Forest
(37.3641°N, 79.2902°W)
Time: 03:32:21
(UTC+00:00)

CUTE-I - Visible Passes

Search period start: 17 March 2026 00:00
Search period end: 27 March 2026 00:00
Orbit: 803 x 819 km, 98.7° (Epoch: 15 March)

Date Brightness Start Highest point End Pass type
(mag) Time Alt. Az. Time Alt. Az. Time Alt. Az.
17 Mar ? 00:23:00 10° WSW 00:24:58 12° W 00:26:57 10° WNW visible
17 Mar ? 23:57:22 10° SW 00:01:17 21° W 00:05:13 10° NW visible
18 Mar ? 10:34:58 10° NE 10:38:44 19° E 10:42:28 10° SE visible
19 Mar ? 10:13:39 10° ENE 10:15:02 11° E 10:16:25 10° ESE visible
21 Mar ? 00:30:48 10° W 00:31:10 10° W 00:31:32 10° W visible
22 Mar ? 00:03:54 10° SW 00:07:27 18° W 00:11:02 10° NW visible
22 Mar ? 10:40:49 10° NE 10:44:54 22° E 10:48:58 10° SE visible
23 Mar ? 10:18:52 10° ENE 10:21:13 13° E 10:23:35 10° ESE visible
26 Mar ? 00:10:30 10° SW 00:13:37 16° W 00:16:46 10° NW visible
26 Mar ? 10:46:41 10° NE 10:51:03 26° E 10:55:23 10° SSE visible
